Location: Alafon
(8.4500°N, 4.2333°E)
Time: 08:45:56
(UTC+00:00)

Altair - Visible Passes

Search period start: 24 July 2021 00:00
Search period end: 03 August 2021 00:00
Orbit: 1501 x 1682 km, 47.2° (Epoch: 23 July)

Date Brightness Start Highest point End Pass type
(mag) Time Alt. Az. Time Alt. Az. Time Alt. Az.
24 Jul 9.0 01:16:36 25° NE 01:16:36 25° NE 01:19:41 10° NE visible
24 Jul 8.9 03:14:37 18° NW 03:15:30 18° NW 03:21:19 10° N visible
25 Jul 9.3 00:52:43 18° NE 00:52:43 18° NE 00:54:33 10° NE visible
25 Jul 8.9 02:50:44 20° NW 02:50:44 20° NW 02:56:38 10° N visible
26 Jul 9.6 00:28:49 12° NE 00:28:49 12° NE 00:29:23 10° NE visible
26 Jul 8.9 02:26:49 22° NNW 02:26:49 22° NNW 02:31:52 10° N visible
27 Jul 9.0 02:02:52 22° NNW 02:02:52 22° NNW 02:07:03 10° N visible
28 Jul 9.1 01:38:52 20° N 01:38:52 20° N 01:42:12 10° NNE visible
29 Jul 9.3 01:14:51 18° N 01:14:51 18° N 01:17:19 10° NNE visible
30 Jul 9.5 00:50:47 16° NNE 00:50:47 16° NNE 00:52:23 10° NNE visible
31 Jul 9.6 00:26:40 13° NNE 00:26:40 13° NNE 00:27:27 10° NNE visible
